This is the latest recevied weather packets stored in our database for station/object KB1JL-13. If no packets are shown the sender has not sent any weather packets the latest 10 day(s).
| Time | Temp. | Humidity | Pressure | Rain* | Wind** | Luminosity | Snow |
|---|---|---|---|---|---|---|---|
| 1777922040 | 19.44° C | 46% | 1020.9 hPa | 0 mm | - | 579 W/m² | - |
| 1777921735 | 19.44° C | 47% | 1020.9 hPa | 0 mm | - | 573 W/m² | - |
| 1777921431 | 19.44° C | 47% | 1020.9 hPa | 0 mm | - | 551 W/m² | - |
| 1777921128 | 20° C | 45% | 1021.2 hPa | 0 mm | - | 567 W/m² | - |
| 1777920825 | 20° C | 44% | 1021.2 hPa | 0 mm | - | 563 W/m² | - |
| 1777920521 | 20° C | 46% | 1020.9 hPa | 0 mm | - | 517 W/m² | - |
| 1777920217 | 20° C | 42% | 1020.9 hPa | 0 mm | - | 518 W/m² | - |
| 1777919913 | 20° C | 46% | 1020.9 hPa | 0 mm | - | 550 W/m² | - |
| 1777919611 | 19.44° C | 45% | 1020.9 hPa | 0 mm | - | 586 W/m² | - |
| 1777919308 | 20° C | 41% | 1021.2 hPa | 0 mm | - | 609 W/m² | - |
| 1777919006 | 21.11° C | 39% | 1021.2 hPa | 0 mm | - | 636 W/m² | - |
| 1777918702 | 20.56° C | 41% | 1021.2 hPa | 0 mm | - | 628 W/m² | - |
| 1777918400 | 20° C | 40% | 1021.6 hPa | 0 mm | - | 603 W/m² | - |
| 1777918099 | 20° C | 41% | 1021.2 hPa | 0 mm | - | 608 W/m² | - |
| 1777917797 | 20° C | 39% | 1021.2 hPa | 0 mm | - | 645 W/m² | - |
| 1777917495 | 20° C | 42% | 1021.6 hPa | 0 mm | - | 610 W/m² | - |
| 1777917191 | 20° C | 43% | 1021.6 hPa | 0 mm | - | 618 W/m² | - |
| 1777916890 | 20° C | 43% | 1021.6 hPa | 0 mm | - | 663 W/m² | - |
| 1777916587 | 19.44° C | 41% | 1021.9 hPa | 0 mm | - | 650 W/m² | - |
| 1777916283 | 20° C | 41% | 1021.6 hPa | 0 mm | - | 644 W/m² | - |
| 1777915980 | 20° C | 40% | 1021.9 hPa | 0 mm | - | 678 W/m² | - |
| 1777915677 | 20° C | 41% | 1021.9 hPa | 0 mm | - | 645 W/m² | - |
| 1777915374 | 20° C | 38% | 1021.9 hPa | 0 mm | - | 652 W/m² | - |
| 1777915069 | 19.44° C | 42% | 1021.9 hPa | 0 mm | - | 651 W/m² | - |
| 1777914767 | 20° C | 41% | 1021.9 hPa | 0 mm | - | 662 W/m² | - |
* Rain latest hour (hover to see other rain measurements)
** Current wind speed in m/s (hover to see current wind gust speed)